Member area
Imprimable
La Roche en Ardenne, 07/07/2018, BEL - The GhostRace IV
List of reports > Ghostrace - 14 km - Result
Search: Page: [1]
148 Entries
 
Complains are not accepted anymore. Results are final.
Category
PosNrNameAgeNATTeamTimeTkmMoy.PlaceNameCity
1.352GOOSSE Yannick38BELGOOSSE1:30:476:30 9.251M35LIBRAMONT
2.353GOOSSE Christophe40BELGOOSSE1:30:506:30 9.251M40SEVISCOURT
3.17ANCION Gilles25BELOCRBW1:32:006:35 9.131SEHSEILLES
4.5DUBASIN Kay31BEL1:36:306:54 8.702SEHNOISEUX
5.4DUPONT Jerome42BEL1:43:087:22 8.152M40WAREMME
6.285GARAIN Stijn29BELGHOSTRUNNERS1:43:377:25 8.113SEHHERFELINGEN
7.284GARAIN Tim23BELGHOSTRUNNERS1:43:447:25 8.104SEHLENNIK
8.218PASTEELS Johan33BEL1:47:407:42 7.805SEHLONGCHAMPS
9.428POIRRIER Louis18BEL1:47:537:43 7.796SEHWAHA
10.351GUEBELS Geoffrey22BEL1:50:167:53 7.627SEHNEUFCHATEAU
11.8GALET Damien33BELOCR BELGIUM WAL1:52:558:04 7.448SEHCHAPON-SERAING
12.7COWEZ Jeremie27BELOCRBW1:53:488:08 7.389SEHCINEY
13.1DEFRENNE Johan28BELDEUF TEAM1:54:228:11 7.3510SEHCHERAIN
14.2DEFRENNE Mike30BELDEUF TEAM1:55:018:13 7.3011SEHBASTOGNE
15.430ROBYN Nicolas23BEL1:59:138:31 7.0512SEHWAHA
16.296FASOLI Gianni27BELJAC2:03:448:51 6.7913SEHSERAING
17.310HOST Nicolas41BEL2:04:218:53 6.763M40HOUDEMONT
18.336HOST Lorin35BELLES TICHES DROI2:04:328:54 6.752M35EMBOURG
19.291NERI Bruno27BELJAC2:04:398:55 6.7414SEHGRACE HOLLOGNE
20.127MAHY Alexandre14BELTHE WARRIORS2:04:568:56 6.7215SEHBASTOGNE
21.361HOUSIAUX Dimitri30BEL2:05:008:56 6.7216SEHGEVES
22.124REMACLE Louis15BELTHE WARRIORS2:05:018:56 6.7217SEHBASTOGNE
23.126NOPPE Gustin15BELTHE WARRIORS2:05:078:57 6.7118SEHVAUX-SUR-SÛRE
24.125LHOAS Elliot15BELTHE WARRIORS2:05:098:57 6.7119SEHSIBRET
25.349OBCHETTE Cedric31BEL2:05:128:57 6.7120SEHBEAURAING
26.128MAHY Christophe15BELTHE WARRIORS2:05:128:57 6.7121SEHBASTOGNE
27.424LEROY Thierry39BEL2:05:499:00 6.683M35BASTOGNE
28.19FMORISSE Alice28BELKAKI´S2:08:029:09 6.561SEFOUFFET
29.15DELWASSE Joël52BELLES FRÉROTS2:08:049:09 6.561M50RAEREN
30.93WIJBINGA Arnaud31BEL2:08:109:10 6.5522SEHBRUXELLES
31.152BAUDOUX Cédric33BELLES BANNIS2:10:239:19 6.4423SEHMORLANWELZ
32.9VERELST Michael32BELKAKI´S2:11:529:26 6.3724SEHOUFFET
33.454FGRANDMONT Sabine42BEL2:14:479:38 6.231F40
34.269GODFROID Lillian19BEL2:14:499:38 6.2325SEHANDERLECHT
35.29ARNAUD Tison39FRACHTI2:16:079:44 6.174M35DAINVILLE
36.95DESPROGES Tony46FRA2:16:139:44 6.171M45VILLENEUVE D'ASCQ
37.27DELEBARRE Benoît27FRACHTI2:16:189:45 6.1626SEHTEMPLEUVE
38.448COLLIN Andy30BEL2:16:219:45 6.1627SEHATHUS
39.25LEFEBVRE Geoffrey39BEL2:19:329:58 6.025M35GINGELOM
40.388FMOGIN Margot22FRAGITANS GAUMAIS2:20:0110:01 6.002SEFBREUX
41.387MOGIN Laurent49FRAGITANS GAUMAIS2:20:0410:01 6.002M45BREUX
42.303MARCHAL Frédéric36BELLES RUNNERS2:20:5510:04 5.966M35RUISBROEK
43.280BORIES Joeri29BELGHOSTRUNNERS2:21:3810:07 5.9328SEHGENT
44.282DESMYTER Wilhelm27BELGHOSTRUNNERS2:21:4010:08 5.9329SEHDILBEEK
45.281REDANT Tom29BELGHOSTRUNNERS2:21:4210:08 5.9330SEHHALLE
46.283COUVREUR Lode23BELGHOSTRUNNERS2:21:4810:08 5.9231SEHDILBEEK
47.262FERDINAND Julien35BEL2:22:2610:11 5.907M35SCHAERBEEK
48.497DUFOUR Thibault29BEL2:22:4910:13 5.8832SEH
49.261MARTIN AVENDANO David25BEL2:23:2210:15 5.8633SEHTUBIZE
50.487BRUCK Pierre20BEL2:23:5110:17 5.8434SEH
51.471CLAUDE Nicolas20BEL2:23:5710:17 5.8435SEH
52.479DELREZ Ronan27BEL2:26:0610:27 5.7536SEH
53.228GEORGERY Frédéric40BELGHOSTBUSTERS2:27:0210:31 5.714M40BEAUFORT
54.123FRONZEE Jerome27BEL2:27:2010:32 5.7037SEHFLEMALLE
55.121STRUYS Jeremy27BEL2:27:2710:32 5.7038SEHREMICOURT
56.398CORMOND Ethan20BEL2:27:4810:34 5.6839SEHGENTINNES
57.397LEGROS Guillaume17BEL2:28:0010:35 5.6840SEHGENTINNES
58.211FCOLLARD Yolande29BEL2:28:3810:37 5.653SEFROCHEFORT
59.212SIMONS Mathieu65BELTAF2:28:4210:38 5.651M65HOTTON
60.381DEWART Tanguy25BELLES KETS2:30:0310:44 5.6041SEHBRUXELLES
61.380RITZEN Kevin25BELLES KETS2:30:0910:44 5.5942SEHWEMMEL
62.18DIERCKX Gino38BELEMDS2:30:5210:47 5.578M35HERENTALS
63.166IMBERECHTS Gael47BEL2:32:2210:53 5.513M45MOLENBEEK-SAINT-JEAN
64.233IMBERECHTS Bran42BEL2:32:2910:54 5.515M40GRAND-MANIL
65.167SKIBINSKY Axel37BEL2:32:5910:56 5.499M35BRUXELLES
66.385DUMANCIC Florin24BELGITANS GAUMAIS2:33:0210:56 5.4943SEHCHINY
67.384CHEVALIER Cyril29FRAGITANS GAUMAIS2:33:0910:57 5.4944SEHVILLERS
68.386GREGOIRE Raphaël29BELGITANS GAUMAIS2:33:1610:57 5.4845SEHSEDAN
69.273MISTIAEN John37BEL2:33:3110:58 5.4710M35WORTEGEM-PETEGEM
70.272FHEYMAN Tineke37BEL2:33:3210:58 5.471F35WORTEGEM-PETEGEM
71.501ROUSSEL Maxime31BELLES FÉDÉSRÂLES2:33:4610:59 5.4646SEHSAINT VINCENT
72.500HUTIN Jérome34BELLES FÉDÉSRÂLES2:33:5311:00 5.4647SEHVIRTON
73.439WITT Guillaume25BEL2:35:3311:07 5.4048SEHWAHA
74.429POLUS Jonathan27BEL2:35:4111:08 5.4049SEH4920
75.231MOSSONG Claude29LUXGHOSTBUSTERS2:37:2511:15 5.3450SEHBEAUFORT
76.232MOSSONG Nicolas22LUXGHOSTBUSTERS2:37:3411:16 5.3351SEHBEAUFORT
77.347GRUWÉ François20BEL2:39:2011:23 5.2752SEHBRUXELLES
78.348FRAYLICH Simon33BEL2:39:2411:24 5.2753SEHMELLET
79.440BODSON Regis23BEL2:39:4511:25 5.2654SEH
80.105DEWEZ Simon26BEL2:40:0011:26 5.2555SEHJALHAY
81.107GARSOU Manuel26BEL2:40:0111:26 5.2556SEHTHEUX
82.113VANHULLE Francois33BELVINCE TEAM2:40:1611:27 5.2457SEHTOURNAI
83.456MOUNCHIH Ayoub30MAR2:40:1711:27 5.2458SEHBRUXELLE 1000
84.457LECLERCQ Quentin26BEL2:40:1811:27 5.2459SEHBRUXELLES
85.108SFERRAZZA Lucio30BELVINCE TEAM2:40:2011:28 5.2460SEHLEUZE
86.114DUFRENNE Guillaume31BELVINCE TEAM2:40:2611:28 5.2461SEHTAINTIGNIES
87.455FIANKAN Kevin31BEL2:40:2911:28 5.2362SEHBRUXELLES
88.118DEVOLDER Kevin32BELVINCE TEAM2:40:3911:29 5.2363SEHRUMES
89.116LECONTE Simon35BELVINCE TEAM2:40:4811:30 5.2211M35HAVINNES
90.110SEILLIER Benjamin34BELVINCE TEAM2:40:5911:30 5.2264SEHDOTTIGNIES
91.106GOBLET Augustin27BEL2:41:0511:31 5.2165SEHMARTELANGE
92.338BEUSCART Martin19BELLES BLÉDARTS2:43:5611:43 5.1266SEHHAVINNES
93.337CEYX Lucas19BELLES BLÉDARTS2:43:5911:43 5.1267SEHKAIN
94.109AVET Steve39BELVINCE TEAM2:44:5311:47 5.0912M35RUMES
95.112DEJEAN Julien32BELVINCE TEAM2:44:5811:47 5.0968SEHRUMES
96.111HENRY Thomas30BELVINCE TEAM2:45:0111:48 5.0969SEHPERONNES
97.120DETOURNAY Vincent35BELVINCE TEAM2:45:1311:49 5.0813M35TAINTIGNIES
98.213CORNET Yves44BEL2:45:3711:50 5.076M40ORTHO
99.89ECKER Vincent39BEL2:45:5511:52 5.0614M35MOLENBEEK SAINT-JEAN
100.90ECKER Jean-Pierre48BEL2:45:5611:52 5.064M45SINT-PIETERS-LEEUW
101.80CROCHET Fabian43BEL2:45:5611:52 5.067M40KESSEL-LO
102.149BAUDOUX Cédric33BELLES BANNIS2:46:3011:54 5.0570SEHMORLANWELZ
103.129FCOLLIGNON Valérie43BELTHE OUTSIDERS2:46:3511:54 5.042F40BASTOGNE
104.131FBASTIN Anne42BELTHE OUTSIDERS2:46:4811:55 5.043F40VAUX-SUR-SÛRE
105.133REMACLE Jean-Luc46BELTHE OUTSIDERS2:47:0011:56 5.035M45BASTOGNE
106.132NOPPE Kris47BELTHE OUTSIDERS2:47:0011:56 5.036M45VAUX-SUR-SÛRE
107.34JADIN Gaetan38BELPETIT-RY UNITED2:48:4312:04 4.9815M35CEROUX MOUSTY
108.151SANCHEZ Aurélie33BELLES BANNIS2:49:0312:05 4.9771SEHMORLANWELZ
109.39BALTHAZART Quentin41BELPETIT-RY UNITED2:50:0412:09 4.948M40CORBAIS
110.45PIRENNE Antoine38BELPETIT-RY UNITED2:50:0612:09 4.9416M35COURT-SAINT-ETIENNE
111.44FANDRÉ Johanne36BELPETIT-RY UNITED2:50:2612:11 4.932F35COURT-SAINT-ETIENNE
112.40MONIN Frederic38BELPETIT-RY UNITED2:50:3112:11 4.9317M35NIL SAINT VINCENT
113.330MAYEN Henri27BELTEAMBUILDING2:50:5112:13 4.9272SEHMEIXDEVANTVIRTON
114.250FREVERS Amélie33BEL2:51:4012:16 4.894SEFNASSOGNE
115.249FHENROTIN Nathalie28BEL2:51:4112:16 4.895SEFAYE
116.311FGOLINVAUX Fanny24BEL2:51:5312:17 4.896SEFHAMOIS
117.46FRÉÇON Sylvain38BELLES ZAMIS2:54:1512:27 4.8218M35CLAVIER
118.48FFRAIPONT Sophie38BELLES ZAMIS2:54:1812:27 4.823F35CLAVIER
119.47FBRAIBANT Lindsay30BELLES ZAMIS2:54:2012:28 4.827SEFANDENNE
120.318MARCHAND Sébastien34BEL3:00:4612:55 4.6573SEHLOUVAIN LA NEUVE
121.382LEON SAUVALLE Adria31ESP3:03:0313:05 4.5974SEHCERVELLO
122.383MAGNÉE David24BEL3:03:0513:05 4.5975SEHHUY
123.442MASSART Patrick47BEL3:06:1813:19 4.517M45JUMET
124.75VEYS Grégory33BELLES JAMBES CASS3:06:2113:19 4.5176SEHLIÈGE
125.71FMOSSAY Jessica36BELLES JAMBES CASS3:06:2413:19 4.514F35REMICOURT
126.70MANCINI Davide39BELLES JAMBES CASS3:06:3413:20 4.5019M35REMICOURT
127.74CHAMPON Jeff43BELLES JAMBES CASS3:06:4013:20 4.509M40PLAINEVAUX
128.73FFOULON Isis31BELLES JAMBES CASS3:06:4113:21 4.508SEFLIÈGE
129.365FHOUREZ Lea20BELUNTRUCCOOL23:06:4313:21 4.509SEFECAUSSINNES
130.363FCASTREMAN Julie22BELUNTRUCCOOL23:06:4513:21 4.5010SEFGOSSELIES
131.368MICHAUX Guillaume22BELUNTRUCCOOL23:06:5613:22 4.4977SEHTHIMÉON
132.362CASTREMAN Maximilien19BELUNTRUCCOOL23:07:0513:22 4.4978SEHGOSSELIES
133.370RAUCHS Gontran24BELUNTRUCCOOL23:07:1413:23 4.4979SEHGOUTROUX
134.367RAUCHS Mathieu22BELUNTRUCCOOL23:07:1913:23 4.4880SEHMONTIGNY-LE-TILLEUL
135.301FMARCHAL Alexandra28BELLES RUNNERS3:07:3313:24 4.4811SEFARCHENNES
136.302JULIEN Bruno36BELLES RUNNERS3:07:4413:25 4.4720M35LIEDEKERKE
137.331HUBERT Tony27BELTEAMBUILDING3:12:2313:45 4.3781SEHMEIXDEVANTVIRTON
138.81CLAREBOUT Frédéric43BELLES HULKAINS3:26:2014:45 4.0710M40SOIGNIES
139.85PULVIRENTI Maurizio40ITALES HULKAINS3:26:3014:45 4.0711M40FLOREFFE
140.84HARDY Gordon42BELLES HULKAINS3:26:3314:46 4.0712M40FLOREFFE
141.82KESTELOOT Sébastien40BELLES HULKAINS3:26:4214:46 4.0613M40HONDELANGE
142.83MAMBOUR Arnaud37BELLES HULKAINS3:26:4214:46 4.0621M35BAILEUX
143.266FMAHIEU Sandrine38BEL3:27:2114:49 4.055F35CHAUMONT-GISTOUX
DNF339FCOLLIGNON Clémence18BELÀ LA SIX-QUATRESEFLA ROCHE
DNF498FGRESSE Aline28BELSEF
DNF507PIRE Florentin26BELSEH
DNF506RENSON Romain26BELSEH
DNF449TEST Test33BELSEH
DNF: did not finish; DSQ: disqualified; Speed in km/h
Page: [1]